Weather History for Dayton Wright, OH

Change the Weather History Date:

Monday, March 3, 2014

  Actual Average (KFFO) Record (KFFO)
Temperature  
Mean Temperature 13 °F -  
Max Temperature 18 °F 43 °F 68 °F (2008)
Min Temperature 8 °F 24 °F 6 °F (2003)
Degree Days  
Heating Degree Days 52    
Moisture  
Dew Point 2 °F    
Average Humidity 61    
Maximum Humidity 71    
Minimum Humidity 48    
Precipitation  
Precipitation 0.00 in - - ()
Sea Level Pressure  
Sea Level Pressure 30.37 in    
Wind  
Wind Speed 13 mph (NNE)    
Max Wind Speed 18 mph    
Max Gust Speed 26 mph    
Visibility 10 miles    
Events      
Averages and records for this station are not official NWS values.
T = Trace of Precipitation, MM = Missing Value Source: NWS Daily Summary

Daily Weather History Graph

Daily Weather History Graph

Search for Another Location

Airport:

Trip Planner

Search our weather history database for the weather conditions in past years. The results will help you decide how hot, cold, wet, or windy it might be!

Date:

Astronomy

Mar. 03, 2014 Rise Set
Actual Time 7:06 AM EST 6:31 PM EST
Civil Twilight 6:39 AM EST 6:58 PM EST
Nautical Twilight 6:08 AM EST 7:29 PM EST
Astronomical Twilight 5:37 AM EST 8:00 PM EST
Moon 8:15 AM EST (3/3) 9:32 PM EST (3/3)
Length of Visible Light 12h 18m
Length of Day
11h 24m
Waxing Crescent, 8% of the Moon is Illuminated
Mar 3
Waxing Crescent
Mar 8
First Quarter
Mar 16
Full
Mar 23
Last Quarter
Mar 30
New

Hourly Weather History & Observations

Time (EST) Temp. Windchill Dew Point Humidity Pressure Visibility Wind Dir Wind Speed Gust Speed Precip Events Conditions
12:53 AM 15.1 °F 1.1 °F 7.0 °F 70% 30.26 in 10.0 mi NNE 12.7 mph - N/A   Overcast
1:53 AM 15.1 °F 1.1 °F 7.0 °F 70% 30.27 in 10.0 mi NNE 12.7 mph - N/A   Overcast
2:53 AM 14.0 °F -3.0 °F 6.1 °F 71% 30.26 in 10.0 mi NNE 18.4 mph - N/A   Partly Cloudy
3:53 AM 14.0 °F -2.5 °F 5.0 °F 67% 30.27 in 10.0 mi NNE 17.3 mph - N/A   Scattered Clouds
4:53 AM 12.9 °F -3.9 °F 3.0 °F 65% 30.28 in 10.0 mi NE 17.3 mph - N/A   Clear
5:53 AM 10.9 °F -7.0 °F -0.0 °F 61% 30.29 in 10.0 mi NNE 18.4 mph 26.5 mph N/A   Clear
6:53 AM 10.9 °F -4.7 °F 1.0 °F 64% 30.32 in 10.0 mi NE 13.8 mph - N/A   Clear
7:53 AM 10.9 °F -5.9 °F -0.0 °F 61% 30.34 in 10.0 mi NNE 16.1 mph - N/A   Clear
8:53 AM 10.9 °F -4.1 °F 1.0 °F 64% 30.36 in 10.0 mi NE 12.7 mph - N/A   Clear
9:53 AM 12.9 °F -1.6 °F 3.0 °F 65% 30.38 in 10.0 mi NNE 12.7 mph - N/A   Clear
10:53 AM 15.1 °F 0.5 °F 1.9 °F 56% 30.39 in 10.0 mi NE 13.8 mph - N/A   Clear
11:53 AM 16.0 °F 3.6 °F 3.0 °F 57% 30.40 in 10.0 mi NNE 10.4 mph - N/A   Clear
12:53 PM 16.0 °F 3.6 °F -0.0 °F 49% 30.40 in 10.0 mi NNE 10.4 mph - N/A   Clear
1:53 PM 17.1 °F 2.5 °F 1.0 °F 50% 30.40 in 10.0 mi NNE 15.0 mph - N/A   Clear
2:53 PM 18.0 °F 5.4 °F 1.0 °F 48% 30.40 in 10.0 mi NNE 11.5 mph - N/A   Clear
3:53 PM 18.0 °F 4.8 °F 1.9 °F 50% 30.42 in 10.0 mi North 12.7 mph - N/A   Clear
4:53 PM 17.1 °F 5.8 °F 1.9 °F 52% 30.42 in 10.0 mi North 9.2 mph - N/A   Clear
5:53 PM 16.0 °F 6.3 °F 1.9 °F 54% 30.42 in 10.0 mi North 6.9 mph - N/A   Clear
6:53 PM 12.9 °F 1.6 °F 1.0 °F 59% 30.44 in 10.0 mi North 8.1 mph - N/A   Clear
7:53 PM 10.9 °F 1.4 °F -0.0 °F 61% 30.45 in 10.0 mi North 5.8 mph - N/A   Clear
8:53 PM 9.0 °F -5.1 °F -0.0 °F 67% 30.43 in 10.0 mi NNE 10.4 mph - N/A   Clear
9:53 PM 8.1 °F -2.0 °F -0.9 °F 67% 30.43 in 10.0 mi NE 5.8 mph - N/A   Clear
10:53 PM 9.0 °F -0.9 °F -0.0 °F 67% 30.42 in 10.0 mi NE 5.8 mph - N/A   Clear
11:53 PM 9.0 °F 0.6 °F 1.0 °F 70% 30.40 in 10.0 mi ENE 4.6 mph - N/A   Clear